Weather reports worldwide

Advertisment
Lahr, Germany (10805): temperature & dewpoint: 14.09.2018 19:00:00 - 20.09.2018 19:00:00 (CEST)Lahr, Germany (10805): temperature 5cm & temperature -5cm: 14.09.2018 19:00:00 - 20.09.2018 19:00:00 (CEST)Lahr, Germany (10805): temperature -20cm & temperature -100cm: 14.09.2018 19:00:00 - 20.09.2018 19:00:00 (CEST)Lahr, Germany (10805): wind speed & gusts: 14.09.2018 19:00:00 - 20.09.2018 19:00:00 (CEST)Lahr, Germany (10805): wind direction: 14.09.2018 19:00:00 - 20.09.2018 19:00:00 (CEST)Lahr, Germany (10805): reduced air pressure: 14.09.2018 19:00:00 - 20.09.2018 19:00:00 (CEST)Lahr, Germany (10805): visibility: 14.09.2018 19:00:00 - 20.09.2018 19:00:00 (CEST)Lahr, Germany (10805): sunshine duration: 14.09.2018 19:00:00 - 20.09.2018 19:00:00 (CEST)Lahr, Germany (10805): precipitation: 14.09.2018 19:00:00 - 20.09.2018 19:00:00 (CEST)
Date & Time tt [°C] td [°C] tt 5cm [°C] tt -5cm [°C] tt -20cm [°C] tt -100cm [°C] ff [km/h] ff [kn] fx [km/h] fx [kn] dd ppp [hPa] vv [km] sd [min] rr [mm]
20.09.2018 19:00:00 27,5 13,2 25,0 27,5 23,7 19,6 3 2 9 5 NNW 1015,1 34 60 0,0
20.09.2018 18:00:00 29,3 11,8 29,4 29,6 23,4 19,6 5 3 14 8 WSW 1015,5 40 60 0,0
20.09.2018 17:00:00 29,4 11,8 31,0 31,2 23,0 19,6 8 4 16 9 SSW 1016,1 40 60 0,0
20.09.2018 16:00:00 29,3 11,8 32,2 32,0 22,5 19,6 10 6 18 10 WSW 1016,7 40 60 0,0
20.09.2018 15:00:00 28,9 11,8 32,9 31,9 21,8 19,6 5 3 17 9 S 1017,5 33 60 0,0
20.09.2018 14:00:00 28,5 12,7 32,7 30,9 21,1 19,6 9 5 16 9 SSW 1018,4 43 60 0,0
20.09.2018 13:00:00 27,1 13,9 32,1 28,9 20,5 19,6 6 3 14 8 SW 1019,3 25 60 0,0
20.09.2018 12:00:00 25,3 14,3 29,9 26,1 20,0 19,6 8 5 18 10 SSW 1020,0 27 60 0,0
20.09.2018 11:00:00 23,3 14,7 26,7 23,1 19,8 19,6 8 5 15 8 SW 1020,4 25 60 0,0
20.09.2018 10:00:00 20,8 14,5 23,5 20,0 19,7 19,6 8 4 9 5 SW 1020,6 10 60 0,0
20.09.2018 09:00:00 18,4 14,2 18,7 17,3 19,9 19,6 0 0 5 3 N 1020,7 17 53 0,0
20.09.2018 08:00:00 14,4 12,9 12,7 16,4 20,1 19,6 0 0 4 2 NNE 1020,9 13 13 0,0
20.09.2018 07:00:00 13,3 12,4 11,1 16,6 20,3 19,6 3 2 5 3 WSW 1020,7 15 0 0,0
20.09.2018 06:00:00 14,1 13,5 11,7 17,0 20,6 19,6 0 0 7 4 N 1020,4 12 0 0,0
20.09.2018 05:00:00 14,0 13,2 12,0 17,3 20,9 19,6 2 1 3 2 NNW 1020,2 14 0 0,0
20.09.2018 04:00:00 15,1 13,4 12,8 17,8 21,2 19,6 5 3 8 4 W 1020,2 19 0 0,0
20.09.2018 03:00:00 15,0 13,8 13,2 18,3 21,5 19,6 2 1 9 5 NNW 1020,2 14 0 0,0
20.09.2018 02:00:00 16,3 14,1 13,7 18,8 21,8 19,6 5 3 8 5 W 1020,2 20 0 0,0
20.09.2018 01:00:00 16,1 13,9 13,3 19,5 22,1 19,6 3 2 9 5 E 1020,2 25 0 0,0
20.09.2018 00:00:00 19,2 14,3 16,4 20,2 22,4 19,6 5 3 10 6 WNW 1019,9 31 0 0,0
19.09.2018 23:00:00 19,4 14,5 16,2 21,1 22,7 19,6 3 2 11 6 W 1019,6 36 0 0,0
19.09.2018 22:00:00 19,9 15,3 17,9 21,9 23,0 19,6 6 3 10 5 NW 1019,4 29 0 0,0
19.09.2018 21:00:00 20,8 15,0 17,8 23,2 23,3 19,6 4 2 8 4 NW 1019,0 41 0 0,0
19.09.2018 20:00:00 24,6 14,7 21,9 25,0 23,4 19,6 7 4 8 5 SSE 1018,3 42 8 0,0
19.09.2018 19:00:00 28,3 14,3 26,8 27,4 23,3 19,6 5 3 9 5 SSW 1018,0 52 60 0,0
19.09.2018 18:00:00 29,5 13,5 29,8 29,3 23,0 19,6 7 4 16 9 WSW 1017,9 54 60 0,0
19.09.2018 17:00:00 29,9 12,7 31,4 30,7 22,6 19,6 11 6 22 12 WSW 1018,2 68 60 0,0
19.09.2018 16:00:00 30,0 13,5 33,1 31,6 22,0 19,6 9 5 21 11 SW 1018,3 10 60 0,0
19.09.2018 15:00:00 29,5 13,9 33,1 31,3 21,4 19,6 11 6 19 10 SSW 1018,7 10 60 0,0
19.09.2018 14:00:00 28,2 13,9 33,3 30,2 20,7 19,6 9 5 19 10 WSW 1019,3 10 60 0,0
19.09.2018 13:00:00 27,3 13,9 31,5 28,3 20,1 19,6 13 7 18 10 SSW 1019,7 10 60 0,0
19.09.2018 12:00:00 25,0 13,7 29,9 25,9 19,6 19,6 5 3 14 7 SW 1020,3 10 58 0,0
19.09.2018 11:00:00 21,8 13,4 26,3 22,5 19,3 19,6 8 4 13 7 SW 1020,7 10 60 0,0
19.09.2018 10:00:00 20,0 13,4 22,2 19,4 19,2 19,6 10 5 17 9 S 1020,6 35 60 0,0
19.09.2018 09:00:00 17,7 14,0 19,2 17,1 19,3 19,6 5 3 8 5 NW 1020,5 34 60 0,0
19.09.2018 08:00:00 14,5 12,9 13,7 15,8 19,6 19,6 8 4 9 5 SE 1020,2 10 17 0,0
19.09.2018 07:00:00 13,4 11,8 11,6 16,0 19,8 19,6 6 3 8 5 S 1019,8 25 0 0,0
19.09.2018 06:00:00 13,6 12,1 11,5 16,4 20,1 19,6 3 2 10 6 E 1019,4 29 0 0,0
19.09.2018 05:00:00 15,1 13,1 12,5 16,8 20,3 19,6 5 3 10 5 S 1019,4 32 0 0,0
19.09.2018 04:00:00 16,2 13,4 14,7 17,2 20,6 19,6 9 5 13 7 S 1019,1 40 0 0,0
19.09.2018 03:00:00 16,5 13,5 13,8 17,6 20,9 19,6 7 4 10 5 S 1018,9 44 0 0,0
19.09.2018 02:00:00 16,2 13,4 13,8 18,2 21,2 19,6 7 4 10 6 S 1018,7 47 0 0,0
19.09.2018 01:00:00 18,0 13,6 16,2 18,8 21,5 19,6 9 5 16 8 SSE 1018,6 55 0 0,0
19.09.2018 00:00:00 17,2 14,4 15,7 19,5 21,7 19,6 9 5 13 7 SSE 1018,6 43 0 0,0
18.09.2018 23:00:00 19,3 14,3 17,4 20,5 22,0 19,6 8 5 21 11 S 1018,3 49 0 0,0
18.09.2018 22:00:00 21,0 13,7 20,2 21,4 22,2 19,6 16 9 26 14 SSW 1017,6 51 0 0,0
18.09.2018 21:00:00 21,2 15,1 19,7 22,0 22,5 19,6 4 2 11 6 SSE 1016,8 26 0 0,1
18.09.2018 20:00:00 22,5 13,4 21,4 23,1 22,6 19,6 11 6 19 10 S 1016,1 47 0 0,0
18.09.2018 19:00:00 23,6 15,2 22,5 24,7 22,7 19,6 8 4 22 12 S 1016,0 10 0 0,0
18.09.2018 18:00:00 25,5 16,0 24,8 26,2 22,6 19,6 16 9 23 12 W 1015,7 36 0 0,0
18.09.2018 17:00:00 28,1 14,3 26,8 29,1 22,2 19,6 8 4 13 7 WSW 1015,1 46 30 0,0
18.09.2018 16:00:00 30,0 13,8 32,2 31,2 21,6 19,6 5 3 23 12 SE 1014,9 41 56 0,0
18.09.2018 15:00:00 29,2 14,0 34,5 30,8 20,9 19,6 9 5 24 13 W 1015,5 53 60 0,0
18.09.2018 14:00:00 29,2 14,2 32,7 29,4 20,2 19,6 15 8 27 14 S 1015,9 36 53 0,0
18.09.2018 13:00:00 28,1 13,7 31,8 27,9 19,6 19,6 14 8 28 15 SSW 1016,3 42 47 0,0
18.09.2018 12:00:00 26,4 14,2 28,5 25,4 19,1 19,6 21 11 29 15 SSW 1016,6 10 59 0,0
18.09.2018 11:00:00 24,2 14,0 27,1 22,3 18,8 19,6 12 6 19 10 SSW 1016,7 35 60 0,0
18.09.2018 10:00:00 19,7 12,0 23,0 19,1 18,7 19,6 5 3 13 7 SW 1017,1 29 60 0,0
18.09.2018 09:00:00 17,8 10,9 17,9 16,3 18,8 19,6 7 4 11 6 S 1017,1 24 60 0,0
18.09.2018 08:00:00 14,9 10,6 13,7 15,0 19,1 19,6 7 4 16 9 S 1017,0 25 19 0,0
18.09.2018 07:00:00 13,8 10,4 11,4 15,0 19,3 19,6 9 5 16 9 W 1016,6 10 0 0,0
18.09.2018 06:00:00 12,5 10,3 10,5 15,3 19,6 19,6 5 3 13 7 SSW 1017,0 10 0 0,0
18.09.2018 05:00:00 13,1 10,4 10,7 15,7 19,9 19,6 3 2 9 5 SW 1016,8 27 0 0,0
18.09.2018 04:00:00 15,3 10,2 12,9 16,2 20,2 19,6 8 5 12 7 SSE 1016,3 33 0 0,0
18.09.2018 03:00:00 13,8 10,7 11,1 16,6 20,6 19,6 4 2 8 4 SW 1016,7 27 0 0,0
18.09.2018 02:00:00 13,9 10,9 10,7 17,2 20,9 19,6 6 3 10 5 WSW 1016,7 27 0 0,0
18.09.2018 01:00:00 14,5 11,7 13,3 17,9 21,3 19,6 8 5 11 6 SW 1016,7 23 0 0,0
18.09.2018 00:00:00 17,1 11,8 14,9 18,7 21,6 19,6 8 5 21 11 SSE 1016,7 27 0 0,0
17.09.2018 23:00:00 17,4 12,9 14,6 19,4 22,0 19,7 6 4 11 6 W 1016,4 31 0 0,0
17.09.2018 22:00:00 16,8 12,3 13,2 20,6 22,4 19,7 4 2 10 6 ESE 1016,6 30 0 0,0
17.09.2018 21:00:00 19,0 12,9 15,5 22,0 22,7 19,7 5 3 11 6 E 1016,6 32 0 0,0
17.09.2018 20:00:00 22,0 12,4 18,8 24,1 22,8 19,7 8 4 10 5 E 1016,3 36 14 0,0
17.09.2018 19:00:00 27,3 10,5 24,9 27,1 22,7 19,7 5 3 8 4 ESE 1015,9 10 60 0,0
17.09.2018 18:00:00 28,3 10,8 28,2 29,6 22,4 19,7 4 2 14 7 SSE 1016,2 43 60 0,0
17.09.2018 17:00:00 28,8 10,4 30,7 31,1 21,9 19,7 9 5 13 7 W 1016,8 10 59 0,0
17.09.2018 16:00:00 28,7 9,5 31,7 31,9 21,2 19,7 7 4 24 13 SSW 1017,4 53 60 0,0
17.09.2018 15:00:00 27,6 8,8 32,4 31,7 20,4 19,7 4 2 13 7 - 1018,1 10 60 0,0
17.09.2018 14:00:00 27,5 9,5 31,8 30,5 19,6 19,7 6 3 13 7 SSW 1019,0 47 60 0,0
17.09.2018 13:00:00 25,5 10,0 30,2 28,4 18,8 19,7 5 3 11 6 SSE 1019,8 38 60 0,0
17.09.2018 12:00:00 23,2 12,6 28,3 25,4 18,2 19,7 4 2 9 5 SW 1020,2 31 60 0,0
17.09.2018 11:00:00 20,5 13,7 25,7 21,5 17,9 19,7 6 3 12 7 W 1020,9 22 60 0,0
17.09.2018 10:00:00 17,8 13,1 20,0 17,9 17,8 19,7 7 4 10 6 SW 1021,5 22 60 0,0
17.09.2018 09:00:00 15,1 12,9 15,4 14,8 17,9 19,7 8 4 10 5 WSW 1021,8 14 60 0,0
17.09.2018 08:00:00 12,5 11,5 11,1 13,0 18,1 19,7 2 1 9 5 - 1021,7 10 21 0,0
17.09.2018 07:00:00 10,1 9,8 7,1 13,1 18,4 19,7 2 1 5 3 E 1021,9 5 0 0,0
17.09.2018 06:00:00 10,9 10,3 8,1 13,5 18,7 19,7 3 2 7 4 W 1021,7 11 0 0,0
17.09.2018 05:00:00 10,4 10,0 7,7 14,0 19,1 19,7 4 2 7 4 WSW 1021,5 13 0 0,0
17.09.2018 04:00:00 12,3 11,5 8,9 14,5 19,4 19,7 5 3 6 4 SSW 1021,2 15 0 0,0
17.09.2018 03:00:00 12,6 11,4 10,4 15,2 19,7 19,7 6 4 9 5 SW 1021,2 17 0 0,0
17.09.2018 02:00:00 13,3 12,0 11,1 15,8 20,1 19,8 5 3 10 5 SW 1021,4 17 0 0,0
17.09.2018 01:00:00 13,7 12,2 11,6 16,4 20,4 19,8 7 4 11 6 S 1021,2 21 0 0,0
17.09.2018 00:00:00 13,4 12,5 10,5 17,1 20,8 19,8 4 2 6 3 S 1021,1 15 0 0,0
16.09.2018 23:00:00 15,2 13,2 11,3 18,1 21,2 19,8 3 1 4 2 WNW 1021,0 24 0 0,0
16.09.2018 22:00:00 15,7 13,0 12,7 19,2 21,5 19,8 3 2 4 2 WNW 1021,0 29 0 0,0
16.09.2018 21:00:00 17,5 13,5 14,0 20,8 21,8 19,8 0 0 6 4 N 1020,4 33 0 0,0
16.09.2018 20:00:00 20,2 13,3 16,7 22,8 21,9 19,8 5 3 11 6 NNE 1019,8 44 15 0,0
16.09.2018 19:00:00 23,3 13,0 22,7 25,4 21,8 19,8 8 4 11 6 NNW 1019,3 53 51 0,0
16.09.2018 18:00:00 25,3 12,1 26,2 27,8 21,4 19,8 4 2 8 4 W 1019,0 56 60 0,0
16.09.2018 17:00:00 25,1 11,8 27,2 29,8 20,9 19,8 6 3 13 7 NNW 1019,1 51 60 0,0
16.09.2018 16:00:00 24,0 11,5 28,2 30,1 20,2 19,8 5 3 14 8 NNW 1019,9 41 60 0,0
16.09.2018 15:00:00 23,2 11,5 26,7 29,5 19,4 19,8 6 3 13 7 NNE 1020,7 38 60 0,0
16.09.2018 14:00:00 22,3 11,2 26,9 28,2 18,7 19,8 6 3 14 7 W 1021,1 42 60 0,0
16.09.2018 13:00:00 21,3 10,4 25,4 26,1 18,0 19,8 4 2 12 6 WNW 1021,7 36 60 0,0
16.09.2018 12:00:00 19,0 10,2 23,0 22,7 17,5 19,8 5 3 12 6 SSW 1022,6 36 60 0,0
16.09.2018 11:00:00 16,1 10,6 20,9 19,2 17,1 19,8 9 5 14 7 WSW 1023,4 31 60 0,0
16.09.2018 10:00:00 13,6 9,8 16,4 15,8 17,1 19,8 5 3 10 6 WSW 1023,7 21 60 0,0
16.09.2018 09:00:00 11,2 9,0 11,4 12,8 17,2 19,8 9 5 10 6 SSW 1023,8 10 60 0,0
16.09.2018 08:00:00 8,1 7,0 7,4 11,3 17,5 19,8 3 2 9 5 NE 1023,6 11 21 0,0
16.09.2018 07:00:00 7,3 7,0 6,3 11,5 17,8 19,8 7 4 9 5 NE 1023,6 5 0 0,0
16.09.2018 06:00:00 8,9 8,5 6,5 11,8 18,1 19,8 4 2 8 5 ENE 1023,7 11 0 0,0
16.09.2018 05:00:00 8,3 7,6 6,8 12,2 18,5 19,9 6 3 9 5 NNE 1023,9 10 0 0,0
16.09.2018 04:00:00 8,5 7,9 6,3 12,7 18,8 19,9 5 3 8 4 NNE 1024,2 10 0 0,0
16.09.2018 03:00:00 8,9 8,1 7,2 13,3 19,2 19,9 4 2 8 4 N 1024,7 14 0 0,0
16.09.2018 02:00:00 9,5 8,4 7,1 13,9 19,6 19,9 5 3 6 3 NE 1025,0 17 0 0,0
16.09.2018 01:00:00 10,6 9,2 8,2 14,6 20,0 19,9 5 3 6 4 NE 1025,5 23 0 0,0
16.09.2018 00:00:00 11,1 9,0 8,3 15,3 20,4 19,9 4 2 5 3 N 1025,3 38 0 0,0
15.09.2018 23:00:00 11,8 9,2 9,1 16,2 20,8 19,9 3 2 4 2 NW 1025,3 43 0 0,0
15.09.2018 22:00:00 12,7 9,6 10,1 17,2 21,2 19,9 4 2 5 3 NE 1025,2 46 0 0,0
15.09.2018 21:00:00 14,6 9,4 10,6 18,5 21,6 19,9 5 3 9 5 E 1024,9 56 0 0,0
15.09.2018 20:00:00 16,9 9,1 13,5 20,4 21,8 19,9 9 5 16 8 NNE 1024,4 47 21 0,0
15.09.2018 19:00:00 19,8 8,5 18,6 23,2 21,9 19,9 13 7 20 11 NE 1023,8 60 60 0,0
15.09.2018 18:00:00 21,2 8,8 21,7 25,8 21,7 19,9 13 7 23 12 NE 1023,5 58 60 0,0
15.09.2018 17:00:00 21,5 8,1 23,4 27,7 21,3 19,9 11 6 26 14 NNE 1023,6 44 60 0,0
15.09.2018 16:00:00 21,5 8,2 24,7 28,4 20,9 19,9 10 5 22 12 N 1024,0 39 60 0,0
15.09.2018 15:00:00 21,4 8,6 24,6 28,6 20,3 19,9 10 5 23 12 NNE 1024,4 56 57 0,0
15.09.2018 14:00:00 20,8 7,8 24,7 27,2 19,7 19,9 9 5 22 12 N 1024,8 46 60 0,0
15.09.2018 13:00:00 20,3 8,1 24,2 24,9 19,2 19,9 10 5 24 13 NNW 1025,0 40 57 0,0
15.09.2018 12:00:00 19,1 8,7 23,2 23,2 18,8 19,9 8 4 14 8 NE 1025,1 28 60 0,0
15.09.2018 11:00:00 18,0 9,2 20,7 21,1 18,6 19,9 7 4 12 7 NNE 1025,2 34 60 0,0
15.09.2018 10:00:00 16,8 11,1 19,5 18,5 18,5 19,9 4 2 6 3 NNE 1025,1 25 60 0,0
15.09.2018 09:00:00 15,4 11,2 14,9 15,5 18,7 19,9 0 0 4 2 N 1024,7 22 60 0,0
15.09.2018 08:00:00 12,6 11,9 10,5 14,0 18,9 19,9 2 1 4 2 NNE 1024,4 7 20 0,0
15.09.2018 07:00:00 12,2 11,6 10,9 14,5 19,2 19,9 4 2 6 3 W 1024,1 10 0 0,0
15.09.2018 06:00:00 12,8 11,9 10,1 15,3 19,4 19,9 0 0 7 4 N 1023,5 13 0 0,0
15.09.2018 05:00:00 14,8 12,9 14,2 16,3 19,6 19,9 4 2 6 3 E 1022,9 16 0 0,0
15.09.2018 04:00:00 15,6 12,7 13,0 16,6 19,8 19,9 3 2 13 7 NNW 1022,8 23 0 0,0
15.09.2018 03:00:00 15,7 13,4 14,1 17,1 20,0 19,9 6 3 10 5 NNE 1022,5 19 0 0,0
15.09.2018 02:00:00 17,6 13,7 15,7 17,8 20,2 19,9 3 2 9 5 NNW 1022,1 22 0 0,0
15.09.2018 01:00:00 17,8 15,5 17,2 18,2 20,3 19,9 6 4 10 6 SSW 1021,9 15 0 0,0
15.09.2018 00:00:00 17,5 15,8 16,8 18,1 20,5 19,9 3 2 8 4 WNW 1021,1 16 0 0,0
14.09.2018 23:00:00 16,0 14,5 14,4 18,2 20,7 19,9 3 2 5 3 SW 1020,9 14 0 0,0
14.09.2018 22:00:00 18,2 15,7 17,3 19,2 20,9 19,9 2 1 3 2 NW 1020,6 19 0 0,0
14.09.2018 21:00:00 18,6 16,0 17,6 19,6 21,0 19,9 0 0 5 3 N 1020,3 20 0 0,0
14.09.2018 20:00:00 18,8 15,3 17,3 20,3 21,2 19,9 6 3 10 5 NNE 1019,9 23 0 0,0
14.09.2018 19:00:00 20,2 14,9 20,0 21,5 21,2 19,9 7 4 11 6 N 1019,5 28 18 0,0

tt = temperature
td = dewpoint
tt 5cm = temperature 5cm
tt -5cm = temperature -5cm
tt -20cm = temperature -20cm
tt -100cm = temperature -100cm
ff = wind speed
fx = gusts
dd = wind direction
ppp = reduced air pressure
vv = visibility
sd = sunshine duration
rr = precipitation

Next stations